Location: Unspecified
(35.7250°N, 0.0000°E)
Time: 19:57:38
(UTC+00:00)

Courier 1B Rocket - Pass Details

Date: 21 August 2020
Orbit: 920 x 1202 km, 28.2° (Epoch: 01 October)

Event Time Altitude Azimuth Distance (km) Brightness Sun altitude
Exits shadow 03:09:34 17° 160° (SSE) 2,161 6.6 -25.1°
Drops below altitude 10° 03:11:25 10° 147° (SSE) 2,637 7.2 -24.8°
Sets 03:14:33 0° 134° (SE) 3,612 8.1 -24.3°
